RYR2JT LIME-LRCL

Flight info

Callsign RYR2JT
Flight time 1h 38m
Altitude 35000
Route LEGLO1PXOSKOR1F/28 OSKOR L615 IDREK DCT LAREN/N0451F360 DCT AKADO DCT MONFA/N0450F370 DCT UMBEK DCT BARPI DCT KOPRY DCT OBARA DCT ATSOS
Aircraft B738/M-SDE2E3FGHIRWXY/LB1

Departure

Time 2026-05-03 20:33
Airport Il Caravaggio International Airport (LIME)

Arrival

Time 2026-05-03 22:12
Airport Avram Iancu Cluj International Airport (LRCL)
Time Latitude Longitude Altitude Speed Heading
2026-05-03 20:15 45.66637 9.70056 786 ft 0 kts 193°
2026-05-03 20:15 45.66644 9.70058 786 ft 0 kts 193°
2026-05-03 20:15 45.66651 9.70060 786 ft 2 kts 193°
2026-05-03 20:15 45.66658 9.70063 786 ft 0 kts 193°
2026-05-03 20:16 45.66664 9.70065 786 ft 0 kts 193°
2026-05-03 20:16 45.66670 9.70067 786 ft 0 kts 193°
2026-05-03 20:16 45.66675 9.70068 786 ft 0 kts 193°
2026-05-03 20:16 45.66680 9.70070 786 ft 0 kts 193°
2026-05-03 20:17 45.66686 9.70072 786 ft 0 kts 193°
2026-05-03 20:17 45.66693 9.70074 786 ft 0 kts 193°
2026-05-03 20:17 45.66700 9.70077 786 ft 0 kts 193°
2026-05-03 20:17 45.66707 9.70079 786 ft 0 kts 193°
2026-05-03 20:18 45.66713 9.70081 786 ft 0 kts 193°
2026-05-03 20:18 45.66720 9.70083 786 ft 0 kts 193°
2026-05-03 20:18 45.66723 9.70084 786 ft 0 kts 193°
2026-05-03 20:25 45.66720 9.70084 786 ft 3 kts 185°
2026-05-03 20:25 45.66712 9.70121 786 ft 7 kts 84°
2026-05-03 20:25 45.66702 9.70217 786 ft 13 kts 103°
2026-05-03 20:25 45.66678 9.70370 786 ft 17 kts 104°
2026-05-03 20:26 45.66646 9.70534 786 ft 17 kts 103°
2026-05-03 20:26 45.66615 9.70691 786 ft 16 kts 109°
2026-05-03 20:26 45.66611 9.70707 786 ft 0 kts 108°
2026-05-03 20:27 45.66606 9.70735 786 ft 8 kts 103°
2026-05-03 20:27 45.66586 9.70852 786 ft 16 kts 104°
2026-05-03 20:27 45.66553 9.71020 786 ft 19 kts 105°
2026-05-03 20:28 45.66509 9.71198 786 ft 19 kts 112°
2026-05-03 20:28 45.66472 9.71379 786 ft 19 kts 105°
2026-05-03 20:28 45.66439 9.71554 786 ft 18 kts 96°
2026-05-03 20:28 45.66459 9.71727 786 ft 17 kts 73°
2026-05-03 20:29 45.66466 9.71895 786 ft 17 kts 103°
2026-05-03 20:29 45.66435 9.72065 786 ft 18 kts 105°
2026-05-03 20:29 45.66413 9.72244 786 ft 18 kts 94°
2026-05-03 20:29 45.66381 9.72373 786 ft 0 kts 108°
2026-05-03 20:30 45.66379 9.72382 786 ft 4 kts 108°
2026-05-03 20:30 45.66378 9.72431 786 ft 0 kts 73°
2026-05-03 20:31 45.66383 9.72445 786 ft 5 kts 58°
2026-05-03 20:31 45.66435 9.72452 786 ft 9 kts 345°
2026-05-03 20:31 45.66464 9.72408 786 ft 0 kts 288°
2026-05-03 20:32 45.66466 9.72400 786 ft 6 kts 288°
2026-05-03 20:32 45.66513 9.72158 786 ft 46 kts 285°
2026-05-03 20:32 45.66635 9.71492 786 ft 102 kts 284°
2026-05-03 20:33 45.66872 9.70213 789 ft 162 kts 286°
2026-05-03 20:33 45.67169 9.68556 1351 ft 172 kts 284°
2026-05-03 20:33 45.67143 9.66864 2176 ft 170 kts 244°
2026-05-03 20:33 45.66389 9.65568 3047 ft 172 kts 223°
2026-05-03 20:34 45.65525 9.64386 3875 ft 172 kts 225°
2026-05-03 20:34 45.64648 9.63153 4557 ft 184 kts 225°
2026-05-03 20:34 45.63725 9.61842 5277 ft 192 kts 224°
2026-05-03 20:34 45.62773 9.60482 6055 ft 194 kts 224°
2026-05-03 20:35 45.61812 9.59107 6861 ft 197 kts 224°
2026-05-03 20:35 45.60815 9.57687 7270 ft 212 kts 223°
2026-05-03 20:35 45.59762 9.56188 7816 ft 218 kts 224°
2026-05-03 20:35 45.58527 9.54859 8389 ft 227 kts 199°
2026-05-03 20:36 45.56970 9.54652 9128 ft 230 kts 168°
2026-05-03 20:36 45.55540 9.55676 9852 ft 237 kts 138°
2026-05-03 20:36 45.54660 9.57671 10149 ft 245 kts 107°
2026-05-03 20:36 45.54657 9.60119 10168 ft 255 kts 73°
2026-05-03 20:37 45.55555 9.62287 10194 ft 256 kts 51°
2026-05-03 20:37 45.56753 9.64155 10187 ft 255 kts 47°
2026-05-03 20:37 45.57970 9.65949 10100 ft 254 kts 47°
2026-05-03 20:37 45.59183 9.67770 10094 ft 253 kts 48°
2026-05-03 20:38 45.60383 9.69616 10154 ft 255 kts 49°
2026-05-03 20:38 45.61591 9.71508 10637 ft 260 kts 49°
2026-05-03 20:38 45.62806 9.73424 11416 ft 260 kts 49°
2026-05-03 20:38 45.64021 9.75347 12158 ft 263 kts 50°
2026-05-03 20:39 45.64924 9.77609 12759 ft 266 kts 78°
2026-05-03 20:39 45.65114 9.80285 13060 ft 285 kts 92°
2026-05-03 20:39 45.65101 9.83240 13266 ft 310 kts 93°
2026-05-03 20:39 45.65057 9.86443 13450 ft 335 kts 93°
2026-05-03 20:40 45.65015 9.89885 13648 ft 358 kts 92°
2026-05-03 20:40 45.64983 9.93535 13927 ft 377 kts 92°
2026-05-03 20:40 45.64961 9.97332 14466 ft 384 kts 92°
2026-05-03 20:40 45.64946 10.01157 15169 ft 387 kts 92°
2026-05-03 20:41 45.64931 10.05023 15854 ft 390 kts 91°
2026-05-03 20:41 45.64914 10.08922 16463 ft 395 kts 91°
2026-05-03 20:41 45.64895 10.12816 17130 ft 399 kts 91°
2026-05-03 20:41 45.64882 10.16799 17791 ft 403 kts 91°
2026-05-03 20:42 45.64873 10.20822 18407 ft 407 kts 91°
2026-05-03 20:42 45.64862 10.24897 18944 ft 411 kts 91°
2026-05-03 20:42 45.64850 10.28999 19505 ft 415 kts 91°
2026-05-03 20:42 45.64838 10.33126 20026 ft 418 kts 91°
2026-05-03 20:43 45.64823 10.37280 20074 ft 417 kts 91°
2026-05-03 20:43 45.64805 10.41467 20239 ft 424 kts 91°
2026-05-03 20:43 45.64793 10.45608 20846 ft 425 kts 91°
2026-05-03 20:43 45.64794 10.49859 21437 ft 427 kts 90°
2026-05-03 20:44 45.64798 10.54117 21976 ft 430 kts 90°
2026-05-03 20:44 45.64801 10.58395 22474 ft 434 kts 90°
2026-05-03 20:44 45.64801 10.62713 22927 ft 438 kts 91°
2026-05-03 20:44 45.64774 10.67109 23417 ft 442 kts 91°
2026-05-03 20:45 45.64723 10.71498 23857 ft 445 kts 91°
2026-05-03 20:45 45.64668 10.75945 24278 ft 448 kts 91°
2026-05-03 20:45 45.64474 10.80341 24679 ft 450 kts 99°
2026-05-03 20:45 45.63826 10.84714 25055 ft 451 kts 108°
2026-05-03 20:46 45.62739 10.88850 25419 ft 452 kts 114°
2026-05-03 20:46 45.61511 10.93011 25819 ft 454 kts 115°
2026-05-03 20:46 45.60256 10.97174 26188 ft 457 kts 115°
2026-05-03 20:46 45.58996 11.01363 26539 ft 460 kts 115°
2026-05-03 20:47 45.57737 11.05581 26893 ft 463 kts 114°
2026-05-03 20:47 45.56482 11.09829 27261 ft 465 kts 114°
2026-05-03 20:47 45.55247 11.14034 27609 ft 468 kts 114°
2026-05-03 20:47 45.53987 11.18334 27940 ft 470 kts 114°
2026-05-03 20:48 45.52704 11.22713 28277 ft 473 kts 114°
2026-05-03 20:48 45.51452 11.26984 28588 ft 475 kts 114°
2026-05-03 20:48 45.50171 11.31341 28906 ft 477 kts 114°
2026-05-03 20:48 45.48883 11.35715 29227 ft 479 kts 114°
2026-05-03 20:49 45.47588 11.40101 29530 ft 482 kts 114°
2026-05-03 20:49 45.46288 11.44500 29824 ft 484 kts 114°
2026-05-03 20:49 45.44975 11.48929 30211 ft 484 kts 114°
2026-05-03 20:49 45.43665 11.53345 30614 ft 482 kts 114°
2026-05-03 20:50 45.42378 11.57673 30981 ft 481 kts 114°
2026-05-03 20:50 45.41087 11.62007 31274 ft 482 kts 114°
2026-05-03 20:50 45.39765 11.66440 31581 ft 482 kts 114°
2026-05-03 20:50 45.38456 11.70820 31905 ft 482 kts 114°
2026-05-03 20:51 45.37142 11.75206 32271 ft 481 kts 114°
2026-05-03 20:51 45.35838 11.79558 32578 ft 481 kts 114°
2026-05-03 20:51 45.34539 11.83880 32851 ft 482 kts 114°
2026-05-03 20:51 45.33202 11.88325 33149 ft 482 kts 114°
2026-05-03 20:52 45.31888 11.92685 33485 ft 481 kts 114°
2026-05-03 20:52 45.30566 11.97066 33777 ft 481 kts 114°
2026-05-03 20:52 45.29333 12.01485 34004 ft 482 kts 107°
2026-05-03 20:52 45.28631 12.06069 34241 ft 482 kts 96°
2026-05-03 20:53 45.28446 12.10813 34511 ft 480 kts 87°
2026-05-03 20:53 45.28810 12.15513 34770 ft 477 kts 78°
2026-05-03 20:53 45.29426 12.20129 35048 ft 476 kts 77°
2026-05-03 20:54 45.30711 12.29417 35083 ft 481 kts 77°
2026-05-03 20:54 45.32471 12.43289 35071 ft 473 kts 77°
2026-05-03 20:55 45.33695 12.52454 35077 ft 471 kts 73°
2026-05-03 20:55 45.35464 12.61391 35091 ft 469 kts 70°
2026-05-03 20:56 45.37332 12.70273 35089 ft 469 kts 70°
2026-05-03 20:56 45.39144 12.79176 35087 ft 469 kts 71°
2026-05-03 20:57 45.40903 12.88041 35086 ft 469 kts 71°
2026-05-03 20:57 45.42663 12.96983 35088 ft 469 kts 71°
2026-05-03 20:58 45.44419 13.05931 35087 ft 469 kts 71°
2026-05-03 20:58 45.46168 13.14871 35086 ft 469 kts 71°
2026-05-03 20:59 45.47913 13.23835 35089 ft 469 kts 71°
2026-05-03 20:59 45.50333 13.32293 35096 ft 461 kts 55°
2026-05-03 21:00 45.53081 13.38794 35095 ft 461 kts 55°
2026-05-03 21:00 45.56867 13.48031 35104 ft 461 kts 56°
2026-05-03 21:01 45.59584 13.56363 35102 ft 468 kts 69°
2026-05-03 21:01 45.61395 13.65231 35096 ft 469 kts 71°
2026-05-03 21:02 45.63158 13.74197 35103 ft 469 kts 71°
2026-05-03 21:02 45.64959 13.83174 35116 ft 470 kts 71°
2026-05-03 21:03 45.66781 13.92145 35113 ft 470 kts 71°
2026-05-03 21:03 45.68593 14.01063 35116 ft 470 kts 71°
2026-05-03 21:04 45.70411 14.10046 35122 ft 470 kts 71°
2026-05-03 21:04 45.72219 14.19032 35127 ft 470 kts 71°
2026-05-03 21:05 45.74018 14.28018 35130 ft 469 kts 71°
2026-05-03 21:05 45.75803 14.36974 35134 ft 467 kts 72°
2026-05-03 21:06 45.77564 14.45852 35132 ft 466 kts 72°
2026-05-03 21:06 45.79326 14.54772 35121 ft 464 kts 72°
2026-05-03 21:07 45.81072 14.63654 35128 ft 463 kts 72°
2026-05-03 21:07 45.82810 14.72536 35107 ft 462 kts 72°
2026-05-03 21:08 45.84524 14.81331 35113 ft 461 kts 72°
2026-05-03 21:08 45.86237 14.90168 35111 ft 460 kts 72°
2026-05-03 21:09 45.87942 14.98998 35101 ft 459 kts 72°
2026-05-03 21:09 45.89638 15.07826 35100 ft 458 kts 72°
2026-05-03 21:10 45.91308 15.16554 35093 ft 457 kts 72°
2026-05-03 21:10 45.92980 15.25339 35101 ft 457 kts 72°
2026-05-03 21:11 45.94626 15.34024 35096 ft 456 kts 72°
2026-05-03 21:11 45.96298 15.42887 35105 ft 456 kts 72°
2026-05-03 21:12 45.97950 15.51686 35107 ft 456 kts 72°
2026-05-03 21:12 45.99589 15.60452 35096 ft 456 kts 72°
2026-05-03 21:13 46.01233 15.69296 35107 ft 455 kts 72°
2026-05-03 21:13 46.02854 15.78052 35102 ft 456 kts 72°
2026-05-03 21:14 46.04474 15.86842 35102 ft 456 kts 72°
2026-05-03 21:14 46.06092 15.95664 35103 ft 456 kts 72°
2026-05-03 21:15 46.07699 16.04468 35106 ft 456 kts 72°
2026-05-03 21:15 46.09310 16.13339 35104 ft 456 kts 72°
2026-05-03 21:16 46.10904 16.22163 35105 ft 456 kts 72°
2026-05-03 21:16 46.12482 16.30935 35110 ft 455 kts 72°
2026-05-03 21:17 46.13809 16.38345 35111 ft 455 kts 72°
2026-05-03 21:17 46.15632 16.48574 35110 ft 455 kts 72°
2026-05-03 21:18 46.17200 16.57419 35101 ft 454 kts 72°
2026-05-03 21:18 46.18722 16.66048 35110 ft 454 kts 73°
2026-05-03 21:19 46.20292 16.74997 35107 ft 453 kts 73°
2026-05-03 21:19 46.21793 16.83588 35109 ft 452 kts 72°
2026-05-03 21:20 46.23337 16.92463 35110 ft 452 kts 73°
2026-05-03 21:20 46.24830 17.01203 35112 ft 451 kts 73°
2026-05-03 21:21 46.26255 17.09920 35109 ft 451 kts 73°
2026-05-03 21:21 46.27682 17.18741 35117 ft 451 kts 73°
2026-05-03 21:22 46.29106 17.27559 35115 ft 450 kts 73°
2026-05-03 21:22 46.30520 17.36325 35114 ft 450 kts 73°
2026-05-03 21:23 46.31932 17.45120 35117 ft 449 kts 73°
2026-05-03 21:23 46.33338 17.53922 35120 ft 449 kts 73°
2026-05-03 21:24 46.34735 17.62719 35119 ft 448 kts 73°
2026-05-03 21:24 46.36119 17.71474 35121 ft 448 kts 73°
2026-05-03 21:25 46.37495 17.80227 35125 ft 447 kts 73°
2026-05-03 21:25 46.38865 17.88993 35130 ft 446 kts 73°
2026-05-03 21:26 46.40223 17.97732 35134 ft 445 kts 73°
2026-05-03 21:26 46.41578 18.06494 35132 ft 445 kts 73°
2026-05-03 21:27 46.42921 18.15222 35132 ft 444 kts 73°
2026-05-03 21:27 46.44249 18.23908 35135 ft 443 kts 73°
2026-05-03 21:28 46.45577 18.32633 35138 ft 443 kts 73°
2026-05-03 21:28 46.46895 18.41348 35134 ft 442 kts 73°
2026-05-03 21:29 46.48208 18.50071 35140 ft 442 kts 73°
2026-05-03 21:29 46.49502 18.58718 35144 ft 442 kts 74°
2026-05-03 21:30 46.50799 18.67435 35144 ft 441 kts 74°
2026-05-03 21:30 46.52087 18.76140 35146 ft 441 kts 74°
2026-05-03 21:31 46.53365 18.84825 35149 ft 440 kts 74°
2026-05-03 21:31 46.54629 18.93461 35151 ft 440 kts 74°
2026-05-03 21:32 46.55893 19.02152 35152 ft 439 kts 74°
2026-05-03 21:32 46.57149 19.10833 35151 ft 439 kts 74°
2026-05-03 21:33 46.58397 19.19505 35151 ft 438 kts 74°
2026-05-03 21:33 46.59631 19.28134 35155 ft 438 kts 75°
2026-05-03 21:34 46.60863 19.36795 35157 ft 438 kts 75°
2026-05-03 21:34 46.62092 19.45488 35159 ft 438 kts 75°
2026-05-03 21:35 46.63315 19.54184 35159 ft 438 kts 75°
2026-05-03 21:35 46.64528 19.62868 35160 ft 438 kts 75°
2026-05-03 21:36 46.65725 19.71479 35159 ft 439 kts 75°
2026-05-03 21:36 46.66928 19.80192 35160 ft 439 kts 75°
2026-05-03 21:37 46.68128 19.88926 35162 ft 439 kts 75°
2026-05-03 21:37 46.69309 19.97579 35158 ft 439 kts 75°
2026-05-03 21:38 46.70487 20.06268 35160 ft 439 kts 75°
2026-05-03 21:38 46.71669 20.15029 35162 ft 439 kts 76°
2026-05-03 21:39 46.72837 20.23745 35160 ft 439 kts 76°
2026-05-03 21:39 46.73995 20.32439 35159 ft 438 kts 76°
2026-05-03 21:40 46.75133 20.41036 35162 ft 438 kts 76°
2026-05-03 21:40 46.76279 20.49746 35159 ft 438 kts 76°
2026-05-03 21:41 46.77420 20.58471 35162 ft 438 kts 76°
2026-05-03 21:41 46.78553 20.67184 35161 ft 438 kts 76°
2026-05-03 21:42 46.79681 20.75916 35161 ft 437 kts 76°
2026-05-03 21:42 46.80794 20.84589 35164 ft 437 kts 76°
2026-05-03 21:43 46.81906 20.93312 35165 ft 437 kts 76°
2026-05-03 21:43 46.83010 21.02024 35166 ft 437 kts 76°
2026-05-03 21:44 46.84110 21.10758 35166 ft 436 kts 76°
2026-05-03 21:44 46.85192 21.19410 35167 ft 436 kts 77°
2026-05-03 21:45 46.86276 21.28135 35162 ft 436 kts 77°
2026-05-03 21:45 46.87353 21.36851 35167 ft 436 kts 77°
2026-05-03 21:46 46.88420 21.45554 35165 ft 435 kts 77°
2026-05-03 21:46 46.89476 21.54214 35158 ft 435 kts 77°
2026-05-03 21:47 46.90518 21.62837 35136 ft 419 kts 77°
2026-05-03 21:47 46.91008 21.66936 35140 ft 404 kts 77°
2026-05-03 21:47 46.91487 21.70946 35089 ft 392 kts 77°
2026-05-03 21:48 46.91948 21.74811 35020 ft 380 kts 77°
2026-05-03 21:48 46.92397 21.78568 34943 ft 369 kts 76°
2026-05-03 21:48 46.92834 21.82235 34718 ft 364 kts 76°
2026-05-03 21:48 46.93261 21.85820 34354 ft 362 kts 76°
2026-05-03 21:49 46.93690 21.89427 33956 ft 361 kts 76°
2026-05-03 21:49 46.94119 21.93043 33577 ft 358 kts 76°
2026-05-03 21:49 46.94542 21.96632 33226 ft 355 kts 76°
2026-05-03 21:49 46.94959 22.00181 32872 ft 353 kts 76°
2026-05-03 21:50 46.95372 22.03703 32510 ft 351 kts 76°
2026-05-03 21:50 46.95782 22.07215 32163 ft 348 kts 76°
2026-05-03 21:50 46.96186 22.10687 31833 ft 346 kts 76°
2026-05-03 21:50 46.96588 22.14150 31497 ft 344 kts 76°
2026-05-03 21:51 46.96985 22.17582 31176 ft 341 kts 76°
2026-05-03 21:51 46.97374 22.20949 30864 ft 339 kts 76°
2026-05-03 21:51 46.97765 22.24340 30565 ft 337 kts 76°
2026-05-03 21:51 46.98151 22.27703 30251 ft 334 kts 76°
2026-05-03 21:52 46.98535 22.31055 29907 ft 332 kts 76°
2026-05-03 21:52 46.98912 22.34359 29530 ft 328 kts 76°
2026-05-03 21:52 46.99284 22.37630 29020 ft 323 kts 76°
2026-05-03 21:52 46.99654 22.40882 28391 ft 323 kts 76°
2026-05-03 21:53 47.00023 22.44134 27723 ft 324 kts 76°
2026-05-03 21:53 47.00390 22.47371 27083 ft 324 kts 76°
2026-05-03 21:53 47.00755 22.50598 26455 ft 324 kts 76°
2026-05-03 21:53 47.01119 22.53834 25835 ft 323 kts 77°
2026-05-03 21:54 47.01484 22.57092 25228 ft 322 kts 77°
2026-05-03 21:54 47.01847 22.60327 24635 ft 322 kts 77°
2026-05-03 21:54 47.02207 22.63554 24048 ft 321 kts 77°
2026-05-03 21:54 47.02566 22.66782 23415 ft 320 kts 77°
2026-05-03 21:55 47.02734 22.70033 22730 ft 323 kts 87°
2026-05-03 21:55 47.02512 22.73295 22074 ft 325 kts 95°
2026-05-03 21:55 47.01909 22.76526 21429 ft 329 kts 104°
2026-05-03 21:55 47.01116 22.79608 20803 ft 327 kts 105°
2026-05-03 21:56 47.00304 22.82710 20183 ft 325 kts 105°
2026-05-03 21:56 46.99506 22.85805 19573 ft 323 kts 104°
2026-05-03 21:56 46.98811 22.88901 18978 ft 319 kts 101°
2026-05-03 21:56 46.98182 22.91998 18387 ft 316 kts 101°
2026-05-03 21:57 46.97565 22.95084 17700 ft 314 kts 101°
2026-05-03 21:57 46.96951 22.98140 17048 ft 312 kts 102°
2026-05-03 21:57 46.96333 23.01182 16415 ft 310 kts 102°
2026-05-03 21:57 46.95722 23.04160 15794 ft 308 kts 102°
2026-05-03 21:58 46.95106 23.07147 15176 ft 306 kts 103°
2026-05-03 21:58 46.94489 23.10128 14575 ft 304 kts 103°
2026-05-03 21:58 46.93880 23.13065 13979 ft 302 kts 103°
2026-05-03 21:58 46.93268 23.16008 13318 ft 300 kts 103°
2026-05-03 21:59 46.92659 23.18926 12681 ft 298 kts 103°
2026-05-03 21:59 46.92058 23.21797 12167 ft 293 kts 103°
2026-05-03 21:59 46.91467 23.24621 11653 ft 287 kts 103°
2026-05-03 21:59 46.90888 23.27386 11159 ft 283 kts 103°
2026-05-03 22:00 46.90317 23.30116 10668 ft 279 kts 103°
2026-05-03 22:00 46.89758 23.32783 10186 ft 276 kts 103°
2026-05-03 22:00 46.89201 23.35437 9672 ft 274 kts 104°
2026-05-03 22:00 46.88642 23.38101 9139 ft 271 kts 104°
2026-05-03 22:01 46.88090 23.40728 8618 ft 269 kts 104°
2026-05-03 22:01 46.87543 23.43330 8103 ft 268 kts 104°
2026-05-03 22:01 46.86997 23.45921 7581 ft 266 kts 104°
2026-05-03 22:01 46.86453 23.48488 7104 ft 264 kts 104°
2026-05-03 22:02 46.85935 23.51012 6621 ft 262 kts 99°
2026-05-03 22:02 46.85928 23.53600 6376 ft 247 kts 78°
2026-05-03 22:02 46.86200 23.55203 6325 ft 237 kts 72°
2026-05-03 22:02 46.86884 23.58183 6291 ft 228 kts 70°
2026-05-03 22:03 46.87399 23.60348 6289 ft 224 kts 70°
2026-05-03 22:03 46.87901 23.62488 6287 ft 222 kts 70°
2026-05-03 22:03 46.88396 23.64628 6296 ft 224 kts 71°
2026-05-03 22:03 46.88891 23.66799 6293 ft 228 kts 71°
2026-05-03 22:04 46.89389 23.69002 6313 ft 229 kts 71°
2026-05-03 22:04 46.89719 23.70470 6245 ft 230 kts 71°
2026-05-03 22:04 46.90225 23.72716 6076 ft 233 kts 71°
2026-05-03 22:04 46.90886 23.75661 5828 ft 227 kts 70°
2026-05-03 22:05 46.91373 23.77834 5644 ft 223 kts 70°
2026-05-03 22:05 46.91849 23.79964 5449 ft 219 kts 70°
2026-05-03 22:05 46.92164 23.81371 5285 ft 219 kts 70°
2026-05-03 22:05 46.92796 23.84197 4958 ft 218 kts 70°
2026-05-03 22:06 46.92970 23.86362 4671 ft 222 kts 99°
2026-05-03 22:06 46.92590 23.87788 4514 ft 225 kts 121°
2026-05-03 22:06 46.90907 23.89608 4212 ft 230 kts 157°
2026-05-03 22:06 46.89432 23.90340 3994 ft 225 kts 161°
2026-05-03 22:07 46.88434 23.90793 3829 ft 221 kts 162°
2026-05-03 22:07 46.86525 23.91658 3514 ft 212 kts 165°
2026-05-03 22:07 46.85553 23.91781 3380 ft 204 kts 193°
2026-05-03 22:07 46.84262 23.90272 3420 ft 180 kts 242°
2026-05-03 22:08 46.83601 23.88775 3417 ft 170 kts 244°
2026-05-03 22:08 46.83263 23.87783 3405 ft 160 kts 249°
2026-05-03 22:08 46.82816 23.86321 3350 ft 156 kts 253°
2026-05-03 22:08 46.82333 23.84365 3149 ft 152 kts 256°
2026-05-03 22:09 46.82110 23.83393 2982 ft 147 kts 256°
2026-05-03 22:09 46.81800 23.82021 2812 ft 136 kts 256°
2026-05-03 22:09 46.81508 23.80719 2627 ft 136 kts 256°
2026-05-03 22:10 46.80919 23.78094 2271 ft 136 kts 254°
2026-05-03 22:10 46.80626 23.76800 2065 ft 135 kts 253°
2026-05-03 22:10 46.80329 23.75503 1880 ft 134 kts 250°
2026-05-03 22:10 46.80007 23.74234 1685 ft 131 kts 252°
2026-05-03 22:11 46.79741 23.73007 1530 ft 127 kts 252°
2026-05-03 22:11 46.79505 23.71760 1346 ft 128 kts 255°
2026-05-03 22:11 46.79220 23.70544 1217 ft 127 kts 251°
2026-05-03 22:11 46.78960 23.69337 1053 ft 122 kts 245°
2026-05-03 22:12 46.78719 23.68286 1042 ft 90 kts 252°
2026-05-03 22:12 46.78588 23.67700 1042 ft 30 kts 254°
2026-05-03 22:12 46.78524 23.67427 1042 ft 28 kts 253°
2026-05-03 22:12 46.78469 23.67211 1042 ft 20 kts 238°
2026-05-03 22:13 46.78364 23.67255 1042 ft 19 kts 125°
2026-05-03 22:13 46.78353 23.67427 1042 ft 18 kts 77°
2026-05-03 22:13 46.78379 23.67582 1042 ft 13 kts 72°
2026-05-03 22:13 46.78405 23.67704 1042 ft 13 kts 72°
2026-05-03 22:14 46.78432 23.67825 1042 ft 12 kts 72°
2026-05-03 22:14 46.78457 23.67941 1042 ft 12 kts 72°
2026-05-03 22:14 46.78481 23.68053 1042 ft 12 kts 72°
2026-05-03 22:14 46.78506 23.68164 1042 ft 11 kts 72°
2026-05-03 22:15 46.78531 23.68270 1042 ft 11 kts 70°
2026-05-03 22:15 46.78557 23.68374 1042 ft 11 kts 70°
2026-05-03 22:15 46.78581 23.68474 1042 ft 10 kts 71°
2026-05-03 22:15 46.78602 23.68572 1042 ft 10 kts 72°
2026-05-03 22:16 46.78622 23.68669 1042 ft 10 kts 72°
2026-05-03 22:16 46.78642 23.68763 1042 ft 10 kts 72°
2026-05-03 22:16 46.78637 23.68850 1042 ft 9 kts 135°
2026-05-03 22:16 46.78578 23.68886 1042 ft 9 kts 161°
2026-05-03 22:17 46.78519 23.68914 1042 ft 9 kts 164°
2026-05-03 22:17 46.78461 23.68938 1042 ft 9 kts 164°
2026-05-03 22:17 46.78402 23.68945 1042 ft 8 kts 178°
2026-05-03 22:17 46.78369 23.68949 1042 ft 0 kts 169°
2026-05-03 22:18 46.78366 23.68949 1042 ft 2 kts 174°
2026-05-03 22:18 46.78364 23.68949 1042 ft 0 kts 175°